Погода в Памятом

Россия / Чеченская Республика     42°51′51″N   45°42′35″E
темп.,
°C
ветер,
м/с
пор.,
м/с
влажн.,
%
обл.,
%
осадки,
мм/ч
давл.,
гПа
погр.,
м
17 июня, чт
чт1700:00+15ююв57570 0.0 1009113
03:00+15ю57530 0.0 1009105
06:00+16ю57510 0.0 1007130
09:00+26ю13250 0.0 10061203
12:00+24с44470 0.0 10081211
15:00+18с448897 1.4 1012619
18:00+15ссв2299100 0.9 1015185
21:00+14с22100100 1.6 1018155
18 июня, пт
пт1800:00+12св029897 0.4 1019107
03:00+11ю1194100 0.4 101923
06:00+12юв0091100 0.1 1019103
09:00+15с218376 0.4 1018390
12:00+19с436826 0.9 1016700
15:00+19с326620 2.0 1016781
18:00+17с227442 0.2 1018552
21:00+13ююв22910 0.2 102026
19 июня, сб
сб1900:00+12ююв22761 0.0 101934
03:00+12ююв33696 0.0 101940
06:00+15ююв24665 0.0 101881
09:00+24св1335100 0.0 10151070
12:00+27ссв343010 0.0 10131859
15:00+26с333975 0.0 10131619
18:00+23ссв126383 0.0 101399
21:00+16ю465580 0.0 101675
20 июня, вс
вс2000:00+15ю464642 0.0 101676
03:00+14ю46462 0.0 101674
06:00+16ю46471 0.0 101588
09:00+27ююв23220 0.0 10121062
12:00+29св13220 0.0 10111948
15:00+29с12280 0.0 10111593
18:00+24с12560 0.0 1013103
21:00+16ю44520 0.0 101664
21 июня, пн
пн2100:00+15ю45510 0.0 101668
03:00+15ю45540 0.0 101670
06:00+16ю45540 0.0 1015100
09:00+26юв12260 0.0 10121013
12:00+29св14250 0.0 10102090
15:00+29с12290 0.0 10101856
18:00+24ююз12540 0.0 101158
21:00+16ю45480 0.0 101566